User: anonymous   Login
Location: Bruch
(44.2051°N, 0.4120°E)
Time: 07:26:48
(UTC+00:00)
Language:

HODOYOSHI 4 - Orbit

View from above orbital plane
View from above orbital plane
View from above satellite
View from above satellite

Ground track
Ground track

The orbit data is extracted from the following two-line orbital elements,

1 40011U 14033B   21171.41928118  .00000124  00000-0  22394-4 0  9994
2 40011  97.7288  53.5721 0026538 177.9102 182.2190 14.81321307378497
Epoch (UTC): 20 June 2021 10:03:45
Eccentricity: 0.0026538
inclination: 97.7288°
perigee height: 606 km
apogee height: 644 km
right ascension of ascending node: 53.5721°
argument of perigee: 177.9102°
revolutions per day: 14.81321307
mean anomaly at epoch: 182.2190°
orbit number at epoch: 37849

The dashed part of the orbit path shows where the satellite is in the earth's shadow,  

DLR